Terminal Aerodrome Forecast
Issued by NWS

Home | Current Version | Previous Version | Graphics & Text | Print | Product List | Glossary On
Versions: 1 2 3 4 5 6 7 8 9 10 11 12 13 14 15 16 17 18 19 20 21 22
000
FTUS45 KGGW 302200 AAA
TAFSDY
TAF AMD
KSDY 302208Z 3022/0118 11011KT P6SM VCTS BKN100CB
      TEMPO 3022/3024 VRB25G50KT 2SM TSRAGR BKN050CB
     FM010300 01007KT 5SM FU SCT090
      AMD LTD TO CLD VIS AND WIND=

USA.gov is the U.S. government's official web portal to all federal, state and local government web resources and services.